FW4012 Weather Reports


Display with metric or nautical units.
time (UTC)temp
F
wind
direction
speed
MPH
gust
MPH
rain 1hr
in
rain 24hr
in
rain mn
in
humidity
%
barometer
mb
20260905214224 69 360 1.0 3.0 0.00 0.00 0.00 75 1018.6
20260905213751 69 139 2.0 3.0 0.00 0.00 0.00 76 1018.5
20260905213302 69 130 1.0 3.0 0.00 0.00 0.00 77 1018.4
20260905212740 69 117 2.0 3.0 0.00 0.00 0.00 77 1018.5
20260905212246 69 123 1.0 4.0 0.00 0.00 0.00 77 1018.5
20260905211742 69 120 3.0 4.0 0.00 0.00 0.00 76 1018.3
20260905211249 69 360 2.0 2.0 0.00 0.00 0.00 76 1018.3
20260905210727 70 327 1.0 2.0 0.00 0.00 0.00 76 1018.3
20260905210241 70 329 1.0 2.0 0.00 0.00 0.00 75 1018.2
20260905205741 70 329 0.0 2.0 0.00 0.00 0.00 76 1018.2
20260905205232 70 329 1.0 3.0 0.00 0.00 0.00 77 1018.2
20260905204726 70 329 1.0 4.0 0.00 0.00 0.00 78 1018.1
20260905204249 70 329 3.0 4.0 0.00 0.00 0.00 79 1018.2
20260905203742 70 344 2.0 3.0 0.00 0.00 0.00 80 1018.1
20260905203242 70 344 1.0 3.0 0.00 0.00 0.00 81 1018.1
20260905202747 70 344 2.0 3.0 0.00 0.00 0.00 81 1018.1
20260905202241 70 344 2.0 3.0 0.00 0.00 0.00 82 1018.1
20260905201749 70 344 2.0 3.0 0.00 0.00 0.00 83 1018.0
20260905201239 71 344 2.0 3.0 0.00 0.00 0.00 84 1018.0
20260905200724 71 326 1.0 3.0 0.00 0.00 0.00 84 1018.0
20260905200243 71 326 2.0 3.0 0.00 0.00 0.00 84 1017.9
20260905195729 71 45 0.0 0.0 0.00 0.00 0.00 83 1017.9
20260905195242 72 45 0.0 0.0 0.00 0.00 0.00 83 1017.8
20260905194741 72 45 0.0 0.0 0.00 0.00 0.00 83 1017.9
20260905194308 72 45 0.0 0.0 0.00 0.00 0.00 83 1017.7
20260905193725 72 45 0.0 0.0 0.00 0.00 0.00 83 1017.6
20260905193240 73 46 0.0 0.0 0.00 0.00 0.00 82 1017.6
20260905192749 73 46 0.0 0.0 0.00 0.00 0.00 82 1017.6
20260905192238 73 46 0.0 0.0 0.00 0.00 0.00 82 1017.5
20260905191751 74 46 0.0 2.0 0.00 0.00 0.00 81 1017.5
20260905191304 74 44 0.0 2.0 0.00 0.00 0.00 81 1017.4
20260905190752 74 40 0.0 2.0 0.00 0.00 0.00 80 1017.4
20260905190254 75 311 0.0 4.0 0.00 0.00 0.00 80 1017.2
20260905185726 75 311 2.0 4.0 0.00 0.00 0.00 80 1017.2
20260905185300 75 355 2.0 4.0 0.00 0.00 0.00 79 1017.1
20260905184735 75 309 2.0 4.0 0.00 0.00 0.00 79 1017.1
20260905184225 75 36 1.0 5.0 0.00 0.00 0.00 79 1017.0
20260905183809 76 344 2.0 5.0 0.00 0.00 0.00 79 1017.0
20260905183231 76 316 0.0 2.0 0.00 0.00 0.00 79 1016.9
20260905182801 77 316 0.0 2.0 0.00 0.00 0.00 78 1016.8
20260905182250 77 316 0.0 2.0 0.00 0.00 0.00 77 1016.7
20260905181742 78 316 0.0 2.0 0.00 0.00 0.00 77 1016.6
20260905181304 78 316 0.0 3.0 0.00 0.00 0.00 75 1016.6
20260905180725 79 316 1.0 3.0 0.00 0.00 0.00 74 1016.6
20260905180240 79 316 2.0 3.0 0.00 0.00 0.00 73 1016.6
20260905175751 79 316 1.0 3.0 0.00 0.00 0.00 73 1016.6
20260905175300 80 282 1.0 3.0 0.00 0.00 0.00 72 1016.6
20260905174747 81 282 1.0 2.0 0.00 0.00 0.00 71 1016.4
20260905174240 82 282 0.0 0.0 0.00 0.00 0.00 72 1016.5
20260905173748 83 282 0.0 0.0 0.00 0.00 0.00 71 1016.3
20260905173246 83 282 0.0 0.0 0.00 0.00 0.00 69 1016.3
20260905172737 84 282 0.0 0.0 0.00 0.00 0.00 68 1016.3
20260905172226 84 282 0.0 2.0 0.00 0.00 0.00 67 1016.2
20260905171735 85 282 0.0 3.0 0.00 0.00 0.00 66 1016.1
20260905171234 85 281 1.0 3.0 0.00 0.00 0.00 65 1016.2
20260905170725 85 136 2.0 3.0 0.00 0.00 0.00 66 1016.3
20260905170251 85 360 2.0 4.0 0.00 0.00 0.00 65 1016.2
20260905165740 86 134 2.0 4.0 0.00 0.00 0.00 65 1016.2
20260905165245 87 181 2.0 4.0 0.00 0.00 0.00 63 1016.2
20260905164736 86 184 2.0 3.0 0.00 0.00 0.00 60 1016.2
20260905164231 86 197 2.0 3.0 0.00 0.00 0.00 57 1016.1
20260905163726 86 219 1.0 3.0 0.00 0.00 0.00 58 1016.1
20260905163248 87 219 2.0 3.0 0.00 0.00 0.00 58 1016.0
20260905162736 87 207 1.0 4.0 0.00 0.00 0.00 57 1016.0
20260905162223 87 200 1.0 4.0 0.00 0.00 0.00 56 1016.0
20260905161747 87 209 1.0 4.0 0.00 0.00 0.00 58 1016.0
20260905161225 87 15 1.0 5.0 0.00 0.00 0.00 56 1016.0
20260905160803 88 19 3.0 4.0 0.00 0.00 0.00 57 1016.1
20260905160248 88 161 1.0 5.0 0.00 0.00 0.00 56 1016.0
20260905155740 88 154 2.0 8.0 0.00 0.00 0.00 55 1016.0
20260905155307 88 163 4.0 8.0 0.00 0.00 0.00 56 1015.9
20260905154730 88 165 3.0 5.0 0.00 0.00 0.00 57 1015.9
20260905154227 88 184 2.0 4.0 0.00 0.00 0.00 57 1015.8
20260905153732 87 184 2.0 4.0 0.00 0.00 0.00 58 1015.9
20260905153245 87 181 2.0 4.0 0.00 0.00 0.00 56 1015.9
20260905152802 88 168 2.0 5.0 0.00 0.00 0.00 55 1015.9
20260905152251 88 174 3.0 6.0 0.00 0.00 0.00 55 1016.0
20260905151743 88 171 4.0 6.0 0.00 0.00 0.00 53 1015.9
20260905151305 88 170 3.0 5.0 0.00 0.00 0.00 52 1016.0
20260905150724 89 189 3.0 5.0 0.00 0.00 0.00 52 1016.0
20260905150242 89 194 2.0 5.0 0.00 0.00 0.00 53 1016.0
20260905145750 89 166 3.0 7.0 0.00 0.00 0.00 52 1015.9
20260905145243 89 162 4.0 8.0 0.00 0.00 0.00 51 1015.9
20260905144749 89 184 2.0 7.0 0.00 0.00 0.00 52 1015.9
20260905144242 89 169 4.0 7.0 0.00 0.00 0.00 53 1016.0
20260905143751 89 181 4.0 7.0 0.00 0.00 0.00 52 1015.9
20260905143232 89 177 6.0 7.0 0.00 0.00 0.00 50 1015.9
20260905142724 89 188 3.0 8.0 0.00 0.00 0.00 51 1015.9
20260905142231 89 192 3.0 8.0 0.00 0.00 0.00 54 1015.9
20260905141800 89 167 4.0 9.0 0.00 0.00 0.00 53 1016.0
20260905141237 89 175 6.0 9.0 0.00 0.00 0.00 52 1016.0
20260905140726 89 163 6.0 8.0 0.00 0.00 0.00 52 1016.0
20260905140251 89 171 6.0 8.0 0.00 0.00 0.00 52 1016.2
20260905135737 90 171 5.0 9.0 0.00 0.00 0.00 54 1016.2
20260905135251 90 169 4.0 7.0 0.00 0.00 0.00 54 1016.2
20260905134800 90 143 1.0 4.0 0.00 0.00 0.00 53 1016.1
20260905134242 89 121 1.0 7.0 0.00 0.00 0.00 52 1016.0
20260905133729 90 169 4.0 8.0 0.00 0.00 0.00 50 1016.1
20260905133311 90 170 3.0 8.0 0.00 0.00 0.00 51 1016.3
20260905132746 89 179 3.0 8.0 0.00 0.00 0.00 54 1016.4
20260905132243 89 155 3.0 9.0 0.00 0.00 0.00 50 1016.5
20260905131750 89 148 5.0 9.0 0.00 0.00 0.00 51 1016.5
20260905131225 89 168 4.0 7.0 0.00 0.00 0.00 51 1016.5
20260905130733 89 192 4.0 8.0 0.00 0.00 0.00 51 1016.5
20260905130226 89 163 5.0 8.0 0.00 0.00 0.00 51 1016.6
20260905125741 89 192 3.0 8.0 0.00 0.00 0.00 53 1016.6
20260905125240 88 180 4.0 9.0 0.00 0.00 0.00 51 1016.6
20260905124747 88 159 4.0 9.0 0.00 0.00 0.00 53 1016.6
20260905124243 88 196 3.0 8.0 0.00 0.00 0.00 54 1016.6
20260905123734 88 169 4.0 7.0 0.00 0.00 0.00 52 1016.6
20260905123236 87 181 4.0 7.0 0.00 0.00 0.00 55 1016.7
20260905122737 87 111 4.0 7.0 0.00 0.00 0.00 55 1016.7
20260905122230 87 188 3.0 8.0 0.00 0.00 0.00 56 1016.8
20260905121730 87 157 4.0 9.0 0.00 0.00 0.00 54 1017.0
20260905121234 87 193 4.0 10.0 0.00 0.00 0.00 56 1016.9
20260905120733 86 175 3.0 10.0 0.00 0.00 0.00 58 1017.0
20260905120242 87 168 4.0 7.0 0.00 0.00 0.00 55 1017.0
20260905115751 86 149 3.0 8.0 0.00 0.00 0.00 55 1017.1
20260905115306 86 162 4.0 8.0 0.00 0.00 0.00 53 1017.1
20260905114745 86 124 4.0 9.0 0.00 0.00 0.00 56 1017.1
20260905114233 86 146 4.0 9.0 0.00 0.00 0.00 58 1017.2
20260905113727 86 138 4.0 9.0 0.00 0.00 0.00 59 1017.2
20260905113224 85 171 5.0 7.0 0.00 0.00 0.00 58 1017.1
20260905112809 85 151 4.0 7.0 0.00 0.00 0.00 60 1017.1
20260905112240 85 182 3.0 7.0 0.00 0.00 0.00 59 1017.1
20260905111750 85 157 5.0 7.0 0.00 0.00 0.00 59 1017.1
20260905111238 85 173 5.0 8.0 0.00 0.00 0.00 57 1017.1
20260905110751 85 190 4.0 8.0 0.00 0.00 0.00 59 1017.1
20260905110225 85 150 3.0 8.0 0.00 0.00 0.00 58 1017.1
20260905105743 85 166 5.0 8.0 0.00 0.00 0.00 59 1017.0
20260905105240 84 184 3.0 7.0 0.00 0.00 0.00 60 1017.2
20260905104751 84 156 4.0 6.0 0.00 0.00 0.00 59 1017.1
20260905104240 84 161 3.0 8.0 0.00 0.00 0.00 60 1017.2
20260905103744 84 166 6.0 8.0 0.00 0.00 0.00 60 1017.2
20260905103224 83 173 5.0 8.0 0.00 0.00 0.00 61 1017.1
20260905102743 83 162 2.0 10.0 0.00 0.00 0.00 59 1017.1
20260905102250 84 180 6.0 10.0 0.00 0.00 0.00 58 1017.1
20260905101757 83 155 6.0 10.0 0.00 0.00 0.00 61 1017.1
20260905101223 85 163 5.0 9.0 0.00 0.00 0.00 58 1017.1
20260905100808 84 173 5.0 6.0 0.00 0.00 0.00 58 1017.0
20260905100226 84 176 3.0 6.0 0.00 0.00 0.00 56 1017.1
20260905095741 84 208 3.0 6.0 0.00 0.00 0.00 57 1017.1
20260905095306 83 208 1.0 5.0 0.00 0.00 0.00 60 1017.1
20260905094739 83 165 3.0 5.0 0.00 0.00 0.00 60 1017.1
20260905094246 82 177 2.0 7.0 0.00 0.00 0.00 58 1017.1
20260905093729 82 174 4.0 7.0 0.00 0.00 0.00 58 1017.1
20260905093258 82 166 1.0 7.0 0.00 0.00 0.00 61 1017.1
20260905092731 82 108 2.0 3.0 0.00 0.00 0.00 62 1017.1
20260905092255 81 108 1.0 6.0 0.00 0.00 0.00 64 1017.0
20260905091724 81 107 3.0 6.0 0.00 0.00 0.00 64 1017.1
20260905091301 80 112 2.0 3.0 0.00 0.00 0.00 68 1017.2
20260905090735 79 121 2.0 3.0 0.00 0.00 0.00 65 1017.1
20260905090303 79 170 1.0 3.0 0.00 0.00 0.00 67 1017.0
20260905085743 78 169 1.0 5.0 0.00 0.00 0.00 66 1017.1
20260905085253 78 29 2.0 5.0 0.00 0.00 0.00 66 1017.1
20260905084742 78 360 1.0 7.0 0.00 0.00 0.00 67 1017.1
20260905084249 77 360 2.0 7.0 0.00 0.00 0.00 68 1017.1
20260905083748 77 262 2.0 6.0 0.00 0.00 0.00 69 1017.1
20260905083243 77 269 3.0 6.0 0.00 0.00 0.00 69 1017.1
20260905082742 77 292 3.0 5.0 0.00 0.00 0.00 70 1017.1
20260905082251 77 346 2.0 5.0 0.00 0.00 0.00 69 1017.0
20260905081740 77 9 2.0 4.0 0.00 0.00 0.00 69 1017.1
20260905081249 77 5 0.0 3.0 0.00 0.00 0.00 69 1017.0
20260905080749 77 5 0.0 3.0 0.00 0.00 0.00 71 1016.9
20260905080247 76 259 0.0 0.0 0.00 0.00 0.00 69 1016.9
20260905075812 76 259 0.0 0.0 0.00 0.00 0.00 70 1016.9
20260905075245 76 259 0.0 0.0 0.00 0.00 0.00 71 1016.8
20260905074755 75 219 0.0 0.0 0.00 0.00 0.00 73 1016.7
20260905074233 75 219 0.0 0.0 0.00 0.00 0.00 73 1016.7
20260905073733 74 217 0.0 0.0 0.00 0.00 0.00 76 1016.8
20260905073246 74 211 0.0 0.0 0.00 0.00 0.00 76 1016.7
20260905072802 74 211 0.0 0.0 0.00 0.00 0.00 77 1016.7
20260905072247 73 211 0.0 0.0 0.00 0.00 0.00 78 1016.6
20260905071740 73 211 0.0 0.0 0.00 0.00 0.00 79 1016.6
20260905071245 72 211 0.0 0.0 0.00 0.00 0.00 80 1016.7
20260905070723 72 211 0.0 0.0 0.00 0.00 0.00 83 1016.6
20260905070237 71 211 0.0 1.0 0.00 0.00 0.00 83 1016.7
20260905065747 71 211 0.0 1.0 0.00 0.00 0.00 83 1016.7
20260905065238 71 255 0.0 1.0 0.00 0.00 0.00 83 1016.6
20260905064744 70 255 0.0 1.0 0.00 0.00 0.00 84 1016.6
20260905064306 70 255 0.0 1.0 0.00 0.00 0.00 84 1016.5
20260905063737 70 255 0.0 1.0 0.00 0.00 0.00 83 1016.4
20260905063231 70 255 0.0 1.0 0.00 0.00 0.00 83 1016.5
20260905062723 70 255 0.0 1.0 0.00 0.00 0.00 83 1016.4
20260905062249 70 255 0.0 2.0 0.00 0.00 0.00 84 1016.4
20260905061739 69 255 0.0 2.0 0.00 0.00 0.00 84 1016.5
20260905061249 69 255 0.0 0.0 0.00 0.00 0.00 84 1016.5
20260905060742 69 255 0.0 1.0 0.00 0.00 0.00 86 1016.4
20260905060242 68 255 1.0 1.0 0.00 0.00 0.00 88 1016.4
20260905055729 67 255 0.0 1.0 0.00 0.00 0.00 88 1016.4
20260905055237 66 255 0.0 1.0 0.00 0.00 0.00 89 1016.4
20260905054741 66 255 0.0 1.0 0.00 0.00 0.00 90 1016.3
20260905054249 65 255 0.0 1.0 0.00 0.00 0.00 90 1016.3
20260905053741 64 255 0.0 1.0 0.00 0.00 0.00 90 1016.3
20260905053231 64 255 0.0 2.0 0.00 0.00 0.00 90 1016.3
20260905052730 64 255 1.0 3.0 0.00 0.00 0.00 90 1016.2
20260905052252 63 253 1.0 3.0 0.00 0.00 0.00 90 1016.2
20260905051804 63 254 1.0 2.0 0.00 0.00 0.00 89 1016.1
20260905051247 63 320 0.0 1.0 0.00 0.00 0.00 89 1015.9
20260905050742 63 320 0.0 2.0 0.00 0.00 0.00 89 1016.0
20260905050251 63 319 0.0 1.0 0.00 0.00 0.00 89 1016.0
20260905045741 63 319 0.0 2.0 0.00 0.00 0.00 89 1015.8
20260905045226 63 319 0.0 2.0 0.00 0.00 0.00 89 1015.6
20260905044738 63 318 0.0 4.0 0.00 0.00 0.00 89 1015.6
20260905044237 63 318 1.0 4.0 0.00 0.00 0.00 89 1015.7
20260905043725 63 318 1.0 3.0 0.00 0.00 0.00 88 1015.6
20260905043303 63 318 0.0 2.0 0.00 0.00 0.00 88 1015.5
20260905042724 63 318 1.0 2.0 0.00 0.00 0.00 88 1015.5
20260905042259 63 319 0.0 1.0 0.00 0.00 0.00 88 1015.4
20260905041750 63 319 0.0 1.0 0.00 0.00 0.00 88 1015.4
20260905041240 63 319 0.0 1.0 0.00 0.00 0.00 88 1015.5
20260905040738 64 319 0.0 1.0 0.00 0.00 0.00 88 1015.6
20260905040238 64 319 0.0 3.0 0.00 0.00 0.00 88 1015.5
20260905035739 64 319 1.0 3.0 0.00 0.00 0.00 88 1015.6
20260905035238 64 319 1.0 3.0 0.00 0.00 0.00 88 1015.6
20260905034737 64 319 0.0 2.0 0.00 0.00 0.00 88 1015.6
20260905034223 64 319 1.0 2.0 0.00 0.00 0.00 87 1015.7
20260905033751 64 319 0.0 1.0 0.00 0.00 0.00 87 1015.6
20260905033232 64 319 0.0 1.0 0.00 0.00 0.00 87 1015.7
20260905032744 64 319 0.0 2.0 0.00 0.00 0.00 87 1015.9
20260905032241 64 319 1.0 2.0 0.00 0.00 0.00 87 1015.8
20260905031752 64 319 0.0 1.0 0.00 0.00 0.00 87 1015.8
20260905031242 64 319 0.0 1.0 0.00 0.00 0.00 87 1015.8
20260905030745 64 319 0.0 1.0 0.00 0.00 0.00 87 1016.0
20260905030250 65 319 0.0 2.0 0.00 0.00 0.00 86 1016.0
20260905025753 65 320 1.0 2.0 0.00 0.00 0.00 86 1015.9
20260905025233 65 319 0.0 2.0 0.00 0.00 0.00 86 1016.0
20260905024728 65 320 0.0 1.0 0.00 0.00 0.00 86 1016.0
20260905024249 65 320 0.0 3.0 0.00 0.00 0.00 86 1016.0
20260905023734 65 320 1.0 3.0 0.00 0.00 0.00 86 1016.0
20260905023228 65 320 0.0 4.0 0.00 0.00 0.00 86 1015.9
20260905022756 65 323 2.0 4.0 0.00 0.00 0.00 87 1015.8
20260905022258 65 304 2.0 3.0 0.00 0.00 0.00 87 1015.9
20260905021726 65 300 2.0 3.0 0.00 0.00 0.00 87 1015.8
20260905021241 65 292 2.0 3.0 0.00 0.00 0.00 87 1015.9
20260905020753 65 284 1.0 5.0 0.00 0.00 0.00 87 1015.9
20260905020243 65 14 2.0 5.0 0.00 0.00 0.00 87 1015.8
20260905015751 64 333 3.0 4.0 0.00 0.00 0.00 87 1016.1
20260905015242 64 327 2.0 4.0 0.00 0.00 0.00 87 1016.1
20260905014737 64 304 0.0 0.0 0.00 0.00 0.00 86 1016.1
20260905014226 65 300 0.0 0.0 0.00 0.00 0.00 86 1016.2
20260905013724 65 298 0.0 0.0 0.00 0.00 0.00 86 1016.2
20260905013242 65 298 0.0 0.0 0.00 0.00 0.00 86 1016.2
20260905012737 65 327 0.0 0.0 0.00 0.00 0.00 86 1016.1
20260905012237 65 329 0.0 0.0 0.00 0.00 0.00 86 1016.1
20260905011759 65 329 0.0 0.0 0.00 0.00 0.00 85 1016.2
20260905011237 65 329 0.0 0.0 0.00 0.00 0.00 85 1016.3
20260905010746 65 329 0.0 0.0 0.00 0.00 0.00 85 1016.3
20260905010223 65 329 0.0 0.0 0.00 0.00 0.00 85 1016.3
20260905005759 65 329 0.0 0.0 0.00 0.00 0.00 85 1016.4
20260905005250 65 329 0.0 0.0 0.00 0.00 0.00 84 1016.4
20260905004735 65 329 0.0 0.0 0.00 0.00 0.00 84 1016.4
20260905004226 65 329 0.0 0.0 0.00 0.00 0.00 84 1016.3
20260905003740 65 329 0.0 0.0 0.00 0.00 0.00 84 1016.4
20260905003240 65 329 0.0 0.0 0.00 0.00 0.00 84 1016.4
20260905002749 65 329 0.0 0.0 0.00 0.00 0.00 84 1016.5
20260905002242 65 329 0.0 0.0 0.00 0.00 0.00 83 1016.6
20260905001746 65 329 0.0 1.0 0.00 0.00 0.00 83 1016.7
20260905001248 65 329 0.0 1.0 0.00 0.00 0.00 83 1016.6
20260905000732 65 329 0.0 0.0 0.00 0.00 0.00 82 1016.6
20260905000303 65 329 0.0 0.0 0.00 0.00 0.00 82 1016.6
20260904235751 65 329 0.0 2.0 0.00 0.00 0.00 82 1016.7
20260904235255 65 329 1.0 2.0 0.00 0.00 0.00 82 1016.6
20260904234726 65 329 0.0 2.0 0.00 0.00 0.00 82 1016.7
20260904234241 65 329 0.0 1.0 0.00 0.00 0.00 82 1016.7
20260904233723 65 329 0.0 1.0 0.00 0.00 0.00 82 1016.8
20260904233258 65 329 0.0 1.0 0.00 0.00 0.00 81 1016.9
20260904232737 65 329 0.0 4.0 0.00 0.00 0.00 81 1016.9
20260904232228 65 329 1.0 4.0 0.00 0.00 0.00 81 1016.8
20260904231735 65 331 2.0 4.0 0.00 0.00 0.00 81 1016.9
20260904231223 65 329 0.0 0.0 0.00 0.00 0.00 81 1016.7
20260904230750 65 329 0.0 0.0 0.00 0.00 0.00 81 1016.8
20260904230242 65 329 0.0 0.0 0.00 0.00 0.00 80 1016.8
20260904225741 65 329 0.0 0.0 0.00 0.00 0.00 80 1016.9
20260904225229 65 329 0.0 0.0 0.00 0.00 0.00 80 1016.8
20260904224743 65 329 0.0 0.0 0.00 0.00 0.00 80 1016.9
20260904224252 65 329 0.0 0.0 0.00 0.00 0.00 80 1017.0
20260904223803 65 329 0.0 0.0 0.00 0.00 0.00 80 1017.0
20260904223242 65 329 0.0 2.0 0.00 0.00 0.00 80 1017.0
20260904222754 66 329 0.0 3.0 0.00 0.00 0.00 80 1017.0
20260904222242 66 329 1.0 3.0 0.00 0.00 0.00 80 1017.0
20260904221805 66 329 0.0 0.0 0.00 0.00 0.00 80 1017.0
20260904221224 66 329 0.0 2.0 0.00 0.00 0.00 81 1016.9
20260904220740 66 329 1.0 2.0 0.00 0.00 0.00 81 1017.1
20260904220240 66 329 1.0 2.0 0.00 0.00 0.00 81 1017.0
20260904215744 66 332 0.0 0.0 0.00 0.00 0.00 81 1017.0
20260904215232 67 332 0.0 0.0 0.00 0.00 0.00 81 1017.1
20260904214724 67 332 0.0 0.0 0.00 0.00 0.00 81 1017.2